EW7771 Weather Reports


Display with metric or nautical units.
time (UTC)temp
F
wind
direction
speed
MPH
gust
MPH
rain 1hr
in
rain 24hr
in
rain mn
in
humidity
%
barometer
mb
20260503175939 74 331 0.0 0.0 0.00 0.00 0.00 59 1012.2
20260503175649 74 310 0.0 0.0 0.00 0.00 0.00 60 1012.3
20260503174929 74 216 0.0 0.0 0.00 0.00 0.00 60 1012.3
20260503174429 73 344 0.0 0.0 0.00 0.00 0.00 59 1012.4
20260503174158 72 279 0.0 0.0 0.00 0.00 0.00 59 1012.3
20260503173429 71 217 0.0 0.0 0.00 0.00 0.00 58 1012.4
20260503172927 70 202 0.0 0.0 0.00 0.00 0.00 60 1012.4
20260503172427 69 246 0.0 0.0 0.00 0.00 0.00 61 1012.5
20260503172151 68 295 0.0 1.0 0.00 0.00 0.00 68 1012.4
20260503171423 67 317 0.0 1.0 0.00 0.00 0.00 70 1012.5
20260503170920 66 82 0.0 0.0 0.00 0.00 0.00 71 1012.4
20260503170426 64 65 0.0 0.0 0.00 0.00 0.00 70 1012.5
20260503150718 50 161 0.0 0.0 0.00 0.00 0.00 95 1013.2
20260503150213 49 161 0.0 0.0 0.00 0.00 0.00 95 1013.2
20260503131045 48 182 0.0 0.0 0.00 0.00 0.00 94 1013.3
20260503130544 48 182 0.0 0.0 0.00 0.00 0.00 94 1013.3
20260503130301 48 182 0.0 0.0 0.00 0.00 0.00 94 1013.2
20260503110541 50 182 0.0 0.0 0.00 0.00 0.00 93 1013.5
20260503100201 51 182 0.0 0.0 0.00 0.00 0.00 93 1013.6
20260503090335 53 182 0.0 0.0 0.00 0.00 0.00 93 1013.7
20260503081233 54 182 0.0 2.0 0.00 0.00 0.00 93 1013.8
20260503080947 54 182 0.0 0.0 0.00 0.00 0.00 92 1013.8
20260503080223 55 182 0.0 0.0 0.00 0.00 0.00 92 1013.7
20260503072706 55 182 0.0 2.0 0.00 0.00 0.00 92 1013.6
20260503072203 55 182 0.0 0.0 0.00 0.00 0.00 92 1013.7
20260503071702 55 182 0.0 0.0 0.00 0.00 0.00 93 1013.7
20260503071208 56 181 0.0 0.0 0.00 0.00 0.00 93 1013.6
20260503070705 56 181 0.0 0.0 0.00 0.00 0.00 92 1013.6
20260503070157 56 181 0.0 0.0 0.00 0.00 0.00 92 1013.6
20260503060147 57 181 0.0 0.0 0.00 0.00 0.00 89 1013.5
20260503054650 58 181 0.0 0.0 0.00 0.00 0.00 88 1013.4
20260503054144 58 181 0.0 0.0 0.00 0.00 0.00 87 1013.5
20260503053644 58 181 0.0 0.0 0.00 0.00 0.00 87 1013.5
20260503053144 58 181 0.0 0.0 0.00 0.00 0.00 86 1013.5
20260503052644 59 181 0.0 0.0 0.00 0.00 0.00 86 1013.5
20260503052143 59 181 0.0 0.0 0.00 0.00 0.00 85 1013.5
20260503051643 59 181 0.0 0.0 0.00 0.00 0.00 85 1013.5
20260503051139 59 181 0.0 0.0 0.00 0.00 0.00 85 1013.5
20260503050649 60 181 0.0 0.0 0.00 0.00 0.00 84 1013.5
20260503050146 60 181 0.0 0.0 0.00 0.00 0.00 84 1013.5
20260503045640 60 181 0.0 0.0 0.00 0.00 0.00 83 1013.5
20260503045137 61 181 0.0 0.0 0.00 0.00 0.00 82 1013.5
20260503044634 61 181 0.0 0.0 0.00 0.00 0.00 82 1013.4
20260503044134 62 181 0.0 0.0 0.00 0.00 0.00 82 1013.4
20260503043859 62 181 0.0 0.0 0.00 0.00 0.00 81 1013.3
20260503043133 62 181 0.0 0.0 0.00 0.00 0.00 80 1013.3
20260503042633 63 181 0.0 0.0 0.00 0.00 0.00 80 1013.2
20260503042126 63 181 0.0 0.0 0.00 0.00 0.00 80 1013.2
20260503041620 63 181 0.0 0.0 0.00 0.00 0.00 79 1013.1
20260503041114 64 181 0.0 0.0 0.00 0.00 0.00 78 1013.1
20260503040608 64 181 0.0 0.0 0.00 0.00 0.00 78 1013.0
20260503040104 65 181 0.0 0.0 0.00 0.00 0.00 77 1012.9
20260503035556 65 181 0.0 0.0 0.00 0.00 0.00 77 1012.7
20260503035051 66 181 0.0 0.0 0.00 0.00 0.00 76 1012.6
20260503034544 66 181 0.0 0.0 0.00 0.00 0.00 75 1012.6
20260503034527 67 181 0.0 0.0 0.00 0.00 0.00 75 1012.5
20260503033534 67 181 0.0 0.0 0.00 0.00 0.00 74 1012.4
20260503033027 68 181 0.0 0.0 0.00 0.00 0.00 73 1012.3
20260503032520 68 181 0.0 0.0 0.00 0.00 0.00 71 1012.2
20260503032014 69 181 0.0 1.0 0.00 0.00 0.00 71 1012.1
20260503031510 69 181 0.0 1.0 0.00 0.00 0.00 67 1012.1
20260503031003 69 173 0.0 0.0 0.00 0.00 0.00 66 1012.0
20260503030456 69 168 0.0 1.0 0.00 0.00 0.00 67 1011.9
20260503025950 70 196 0.0 1.0 0.00 0.00 0.00 65 1011.8
20260503025449 70 140 0.0 0.0 0.00 0.00 0.00 67 1011.8
20260503024939 70 177 0.0 4.0 0.00 0.00 0.00 65 1011.7
20260503024433 70 221 0.0 4.0 0.00 0.00 0.00 65 1011.7
20260503023926 71 178 0.0 1.0 0.00 0.00 0.00 65 1011.7
20260503023652 71 179 0.0 1.0 0.00 0.00 0.00 65 1011.6
20260503022915 71 153 0.0 0.0 0.00 0.00 0.00 65 1011.5
20260503022409 71 160 0.0 0.0 0.00 0.00 0.00 65 1011.4
20260503021903 71 143 0.0 6.0 0.00 0.00 0.00 65 1011.4
20260503021357 71 149 0.0 6.0 0.00 0.00 0.00 63 1011.4
20260503020850 72 162 0.0 8.0 0.00 0.00 0.00 64 1011.4
20260503020344 72 151 0.0 8.0 0.00 0.00 0.00 63 1011.4
20260503015843 72 130 0.0 3.0 0.00 0.00 0.00 63 1011.4
20260503015329 72 150 0.0 2.0 0.00 0.00 0.00 63 1011.4
20260503014824 72 163 0.0 5.0 0.00 0.00 0.00 63 1011.4
20260503014316 72 185 0.0 5.0 0.00 0.00 0.00 62 1011.4
20260503013810 73 175 0.0 3.0 0.00 0.00 0.00 62 1011.4
20260503013304 73 180 0.0 1.0 0.00 0.00 0.00 63 1011.3
20260503012759 73 169 0.0 1.0 0.00 0.00 0.00 62 1011.3
20260503012252 73 184 0.0 4.0 0.00 0.00 0.00 63 1011.3
20260503012242 73 169 0.0 4.0 0.00 0.00 0.00 63 1011.3
20260503011504 73 175 0.0 1.0 0.00 0.00 0.00 63 1011.4
20260503010736 73 338 0.0 0.0 0.00 0.00 0.00 63 1011.3
20260503010228 73 241 0.0 1.0 0.00 0.00 0.00 63 1011.3
20260503005944 73 313 0.0 1.0 0.00 0.00 0.00 64 1011.3
20260503005216 73 95 0.0 1.0 0.00 0.00 0.00 62 1011.3
20260503004931 73 88 0.0 1.0 0.00 0.00 0.00 62 1011.4
20260503004206 74 148 0.0 0.0 0.00 0.00 0.00 61 1011.4
20260503003658 74 148 0.0 0.0 0.00 0.00 0.00 62 1011.4
20260503003420 74 180 0.0 0.0 0.00 0.00 0.00 62 1011.4
20260503002647 74 158 0.0 0.0 0.00 0.00 0.00 63 1011.5
20260503002143 74 159 0.0 0.0 0.00 0.00 0.00 62 1011.4
20260503001643 74 307 0.0 0.0 0.00 0.00 0.00 61 1011.5
20260503001143 74 348 0.0 0.0 0.00 0.00 0.00 62 1011.5
20260503000646 74 192 0.0 0.0 0.00 0.00 0.00 62 1011.5
20260503000143 74 167 0.0 0.0 0.00 0.00 0.00 60 1011.5
20260502235910 74 169 0.0 4.0 0.00 0.00 0.00 59 1011.6
20260502235141 74 176 0.0 4.0 0.00 0.00 0.00 59 1011.5
20260502234642 75 196 0.0 2.0 0.00 0.00 0.00 59 1011.6
20260502234401 75 306 0.0 2.0 0.00 0.00 0.00 58 1011.7
20260502233643 75 88 0.0 3.0 0.00 0.00 0.00 57 1011.7
20260502233149 76 234 0.0 3.0 0.00 0.00 0.00 58 1011.7
20260502232917 76 19 0.0 5.0 0.00 0.00 0.00 56 1011.8
20260502232148 76 77 0.0 5.0 0.00 0.00 0.00 55 1011.9
20260502231648 76 346 0.0 1.0 0.00 0.00 0.00 56 1011.9
20260502231403 76 230 0.0 1.0 0.00 0.00 0.00 55 1012.0
20260502230646 76 205 0.0 0.0 0.00 0.00 0.00 55 1012.0
20260502230142 76 137 0.0 0.0 0.00 0.00 0.00 55 1012.2
20260502225643 76 125 0.0 0.0 0.00 0.00 0.00 59 1012.2
20260502225143 76 148 0.0 0.0 0.00 0.00 0.00 57 1012.2
20260502224638 76 342 0.0 0.0 0.00 0.00 0.00 57 1012.4
20260502224138 75 9 0.0 0.0 0.00 0.00 0.00 57 1012.4
20260502223639 75 174 0.0 2.0 0.00 0.00 0.00 59 1012.5
20260502223402 75 296 0.0 2.0 0.00 0.00 0.00 57 1012.6
20260502222639 74 195 0.0 1.0 0.00 0.00 0.00 59 1012.6
20260502222139 74 164 0.0 0.0 0.00 0.00 0.00 56 1012.6
20260502221638 75 214 0.0 0.0 0.00 0.00 0.00 56 1012.7
20260502221137 75 186 0.0 0.0 0.00 0.00 0.00 58 1012.7
20260502220637 75 206 0.0 0.0 0.00 0.00 0.00 58 1012.8
20260502220138 75 23 0.0 1.0 0.00 0.00 0.00 57 1012.9
20260502215636 75 349 0.0 1.0 0.00 0.00 0.00 58 1012.9
20260502215137 74 278 0.0 1.0 0.00 0.00 0.00 62 1013.0
20260502214635 74 299 0.0 1.0 0.00 0.00 0.00 56 1013.0
20260502214134 74 299 0.0 0.0 0.00 0.00 0.00 57 1013.0
20260502213635 74 261 0.0 0.0 0.00 0.00 0.00 56 1013.1
20260502213134 74 317 0.0 0.0 0.00 0.00 0.00 60 1013.1
20260502212644 74 329 0.0 0.0 0.00 0.00 0.00 60 1013.2
20260502212137 73 336 0.0 0.0 0.00 0.00 0.00 60 1013.2
20260502211627 73 18 0.0 1.0 0.00 0.00 0.00 61 1013.2
20260502211125 73 134 0.0 1.0 0.00 0.00 0.00 61 1013.2
20260502210842 73 231 0.0 1.0 0.00 0.00 0.00 59 1013.3
20260502210112 73 334 0.0 1.0 0.00 0.00 0.00 60 1013.3
20260502205610 73 334 0.0 2.0 0.00 0.00 0.00 58 1013.3
20260502205057 73 307 0.0 2.0 0.00 0.00 0.00 61 1013.4
20260502204557 72 174 0.0 0.0 0.00 0.00 0.00 58 1013.4
20260502204049 72 186 0.0 0.0 0.00 0.00 0.00 60 1013.4
20260502203546 72 198 0.0 0.0 0.00 0.00 0.00 58 1013.5
20260502203037 73 164 0.0 0.0 0.00 0.00 0.00 57 1013.5
20260502202722 72 345 0.0 1.0 0.00 0.00 0.00 59 1013.5
20260502202621 72 136 0.0 0.0 0.00 0.00 0.00 59 1013.5
20260502201518 72 32 0.0 3.0 0.00 0.00 0.00 59 1013.6
20260502201237 72 235 0.0 3.0 0.00 0.00 0.00 59 1013.7
20260502200507 72 95 0.0 0.0 0.00 0.00 0.00 59 1013.8
20260502200001 72 285 0.0 0.0 0.00 0.00 0.00 60 1013.8
20260502195457 72 177 0.0 0.0 0.00 0.00 0.00 61 1014.0
20260502194949 71 289 0.0 0.0 0.00 0.00 0.00 62 1014.1
20260502194444 71 288 0.0 1.0 0.00 0.00 0.00 60 1014.1
20260502193934 71 5 0.0 1.0 0.00 0.00 0.00 60 1014.1
20260502193433 70 296 0.0 0.0 0.00 0.00 0.00 59 1014.2
20260502192925 70 327 0.0 0.0 0.00 0.00 0.00 61 1014.1
20260502192638 70 292 0.0 0.0 0.00 0.00 0.00 60 1014.2
20260502191913 70 323 0.0 1.0 0.00 0.00 0.00 58 1014.2
20260502191410 70 325 0.0 1.0 0.00 0.00 0.00 61 1014.3
20260502190901 69 319 0.0 0.0 0.00 0.00 0.00 64 1014.4
20260502190355 69 5 0.0 0.0 0.00 0.00 0.00 66 1014.5
20260502185849 69 17 0.0 0.0 0.00 0.00 0.00 68 1014.5
20260502185345 68 302 0.0 0.0 0.00 0.00 0.00 63 1014.5
20260502184834 69 66 0.0 0.0 0.00 0.00 0.00 68 1014.6
20260502184328 68 65 0.0 2.0 0.00 0.00 0.00 62 1014.6
20260502183827 68 116 0.0 2.0 0.00 0.00 0.00 64 1014.6
20260502183321 68 302 0.0 2.0 0.00 0.00 0.00 69 1014.7
20260502182810 67 305 0.0 2.0 0.00 0.00 0.00 67 1014.7
20260502182524 67 121 0.0 1.0 0.00 0.00 0.00 67 1014.7
20260502181801 67 265 0.0 0.0 0.00 0.00 0.00 67 1014.7
20260502181253 66 307 0.0 0.0 0.00 0.00 0.00 69 1014.8
20260502180750 66 331 0.0 0.0 0.00 0.00 0.00 75 1014.8